www.pogodaiklimat.ru

Погода и климат >> Архив погоды >> Казахстан >> Жанауштоган


АРХИВ ПОГОДЫ в Жанауштогане

Время (UTC), дата Ветер
(напр.,м/с)
 
Видим.   Явления Облачность Т
(С)
Тd
(С)
f
(%)
Тe
(С)
Тes
(С)
Комфортность P
(гПа)
Po
(гПа)
Тmin
(С)
Tmax
(С)
R
(мм)
R24
(мм)
S
(см)
09 13.04 З 4 20 км 6/6 1000 м
[Cu med, cong]
+18.9 +3.0 35 +19 +23 1011.0 1012.2
12 13.04 З 4 20 км 6/6 1000 м
[Cu med, cong]
+20.4 +7.4 43 +22 +23 комфорт 1012.1 1013.3
15 13.04 З 5 4000 м слаб. ливневой дождь 8/8 600 м
[Cb calv]
+19.1 +9.0 52 +20 +20 1012.2 1013.4 +21.2
18 13.04 З 2 20 км {ливн. осадки} ясно +13.6 +7.6 67 +13 +13 1012.6 1013.8 +21.2 0.0
21 13.04 З 2 20 км ясно +12.4 +8.6 78 +12 +12 1012.9 1014.1
00 14.04 З 1 20 км ясно +10.8 +7.3 79 +11 +11 1013.0 1014.2
03 14.04 З 2 20 км ясно +10.0 +6.8 80 +9 +9 1012.6 1013.8
06 14.04 З 1 20 км 4/0
[Ac trans]
+15.0 +10.3 73 +16 +23 1012.9 1014.1 +9.9 0.0
09 14.04 З 1 20 км 8/4 600 м
[Cb calv Ac trans]
+17.9 +8.4 54 +19 +25 1012.6 1014.8
12 14.04 З 2 20 км 8/4 600 м
[Cb calv Ac trans]
+19.3 +7.1 45 +21 +23 комфорт 1012.2 1013.4
15 14.04 З 2 20 км 4/0
[Ac trans Ci sp]
+18.7 +7.0 46 +20 +20 1011.8 1013.0 +20.0
18 14.04 штиль 0 20 км 3/0
[Ci sp]
+13.4 +4.0 53 +13 +13 1013.1 1014.3 +20.0
21 14.04 штиль 0 20 км 3/0
[Ci sp]
+11.6 +5.1 64 +11 +11 1012.9 1014.1
00 15.04 штиль 0 20 км 3/0
[Ci sp]
+10.4 +6.4 76 +10 +10 1012.9 1014.1
03 15.04 штиль 0 20 км 8/0
[Ci sp]
+9.2 +6.2 81 +8 +9 1013.7 1014.9
06 15.04 В 2 20 км 8/0
[Ac trans Ci sp]
+15.6 +9.0 65 +16 +21 1014.6 1015.8 +9.1
09 15.04 В 3 20 км 9/5 1000 м
[Cu med, cong Ac trans Ci sp]
+19.8 +8.2 47 +21 +25 комфорт 1015.5 1016.7
12 15.04 В 4 20 км 8/3 600 м
[Cb calv Ac trans Ci sp]
+20.4 +6.8 41 +21 +24 комфорт 1015.6 1016.8
15 15.04 В 5 20 км 8/4 600 м
[Cb calv Ac trans]
+18.9 +5.8 42 +19 +19 1015.8 1017.0 +22.0
18 15.04 В 5 20 км 9/9 600 м
[Cb calv Ac trans]
+14.3 +8.1 66 +13 +13 1016.8 1018.0 +22.0
21 15.04 В 4 20 км 9/9 600 м
[Cb calv Ac trans]
+12.0 +6.5 69 +10 +10 1017.0 1018.2
00 16.04 В 4 20 км 9/4 600 м
[Cb calv Ac trans]
+10.2 +5.0 70 +8 +8 1016.2 1017.4
03 16.04 В 3 20 км 9/4 600 м
[Cb calv Ac trans]
+9.4 +4.6 72 +7 +7 1016.2 1017.4
06 16.04 В 3 20 км 9/0
[Ac trans]
+13.0 +4.3 55 +12 +15 1015.5 1016.7 +9.3
09 16.04 В 4 20 км 9/0
[Ac trans]
+16.3 +3.6 43 +16 +20 1014.5 1015.7
12 16.04 В 6 20 км 9/5 600 м
[Sc Ac trans]
+19.5 +3.8 35 +20 +20 1012.9 1014.1
15 16.04 В 5 20 км 9/5 600 м
[Sc Ac trans]
+17.3 +2.7 38 +17 +17 1011.8 1013.0 +20.2
18 16.04 В 2 4000 м слаб. ливневой дождь 9/9 600 м
[Cb calv]
+13.0 +8.4 74 +12 +12 1012.2 1013.4 +20.2
21 16.04 В 2 4000 м слаб. ливневой дождь 9/9 600 м
[Cb calv]
+10.9 +7.8 81 +10 +10 1012.2 1013.4
00 17.04 В 2 20 км {ливн. осадки} 10/10 1000 м
[Sc]
+9.5 +7.4 87 +8 +8 1011.5 1012.7
03 17.04 СВ 7 20 км 10/9 600 м
[Cb calv Ac trans]
+7.1 +3.6 78 +2 +2 1012.6 1013.8
06 17.04 СВ 8 20 км {ливн. осадки} 10/10 600 м
[Cb cap]
+6.4 +3.3 81 +1 +1 1012.9 1014.1 +7.0 3
09 17.04 СВ 8 4000 м слаб. ливневой дождь 10/10 600 м
[Cb cap]
+6.6 +3.5 81 +1 +1 1014.1 1015.3
12 17.04 СВ 8 20 км {ливн. осадки} 8/8 600 м
[Cb calv]
+8.2 +4.1 75 +4 +4 1014.2 1015.4
15 17.04 СВ 7 20 км 8/8 600 м
[Sc]
+6.8 +0.4 64 +2 +2 1015.1 1016.3 +9.0
18 17.04 СВ 8 20 км 4/4 600 м
[Sc]
+5.2 -0.7 66 -0 -0 1015.8 1017.0 +9.0 1
21 17.04 СВ 8 20 км ясно +4.0 -0.9 70 -2 -2 1016.8 1018.0
00 18.04 СВ 7 20 км ясно +2.8 -1.4 74 -3 -3 1017.4 1018.6
03 18.04 СВ 7 20 км 3/0
[Ci sp]
-0.6 -5.5 69 -8 -7 1018.5 1019.8
06 18.04 В 7 20 км пыльный позёмок 3/0
[Ci sp]
+1.4 -6.5 56 -5 -2 1020.5 1021.8 -0.7
09 18.04 В 8 20 км пыльный позёмок 3/0
[Ci sp]
+5.8 -7.4 38 +1 +4 1020.8 1022.0
12 18.04 СВ 8 20 км пыльный позёмок 3/0
[Ci sp]
+8.2 -12.2 22 +4 +6 1021.1 1022.3
15 18.04 СВ 4 20 км {метель} ясно +8.0 -12.2 22 +6 +6 1020.8 1022.0 +8.8
18 18.04 С 3 20 км {метель} ясно +3.4 -9.8 37 0 0 1021.9 1023.1 +8.8
21 18.04 штиль 0 20 км ясно +0.6 -7.6 54 0 0 1022.7 1024.0
00 19.04 штиль 0 20 км ясно -1.4 -8.3 59 -2 -2 1022.3 1023.6
03 19.04 штиль 0 20 км 3/0
[Ci sp]
-3.1 -8.7 65 -4 -3 1023.4 1024.7
06 19.04 С 3 20 км 4/0
[Ci sp]
+4.8 -3.6 54 +2 +9 1024.8 1026.0 -3.2
09 19.04 В 4 20 км 4/0
[Ci sp]
+9.2 -8.6 27 +7 +16 опасность
простуды
1024.7 1025.9
12 19.04 СВ 4 20 км 4/0
[Ac trans Ci sp]
+11.0 -10.7 21 +9 +14 1023.9 1025.1
15 19.04 СВ 5 20 км 6/0
[Ac trans Ci sp]
+10.4 -11.2 21 +8 +8 1023.6 1024.8 +12.0
18 19.04 СВ 2 20 км 6/0
[Ac trans Ci sp]
+4.6 -4.6 51 +3 +3 1024.8 1026.0 +12.0
21 19.04 СВ 1 20 км 3/0
[Ci sp]
+2.6 -5.6 55 +2 +2 1024.9 1026.2
00 20.04 штиль 0 20 км 1/0
[Ci sp]
+0.5 -6.5 59 -0 -0 1025.7 1027.0
03 20.04 штиль 0 20 км 3/0
[Ci sp]
-0.8 -7.0 63 -2 -0 1024.2 1025.5

 

Местоположение метеостанции Жанауштоган (Атырауская область, Казахстан): широта 47.90 долгота 48.80 высота над уровнем моря -10 м.

В архиве по умолчанию представлена погода в Жанауштогане за последнюю неделю. Архивные данные за месяц целиком и за предыдущие месяцы, начиная с января 2011 года, Вы можете получить, выбрав интересующий диапазон дат из раскрывающегося списка и нажав кнопку "Ввод!".


*Определитесь, кто Вы:
робот инопланетянин человек

Внимание! Время в таблицах - всемирное. Для получения местного времени необходимо прибавить поправку, которая равна 5 ч.

Смотрите также архив погоды в соседних городах и на ближайших метеорологических станциях:

Погода в Досанге (Астраханская область, Россия) (127 км)
Погода в Харабали (Астраханская область, Россия) (129 км)
Погода в Урде (Западно-Казахстанская область, Казахстан) (140 км)
Погода в Ганюшкино (Атырауская область, Казахстан) (149 км)
Погода в Исатай (Атырауская область, Казахстан) (155 км)
Погода в Верхнем Баскунчаке (Астраханская область, Россия) (158 км)
Погода в Жангала (Западно-Казахстанская область, Казахстан) (184 км)
Погода в Астрахани (Астраханская область, Россия) (191 км)
Погода в Зеленге (Астраханская область, Россия) (192 км)
Погода в Эльтоне (Волгоградская область, Россия) (198 км)

Пояснения к столбцам:

Ветер - указаны скорость ветра в м/с - средняя за 10 мин, порывы в срок и между сроками (в фигурных скобках) и направление, откуда дует ветер: С - северный, СВ - северо-восточный, В - восточный, ЮВ - юго-восточный, Ю - южный, ЮЗ - юго-западный, З - западный, СЗ - северо-западный.
Видимость - горизонтальная дальность видимости в метрах или километрах. При видимости от 1 до 10 км при отсутствии осадков обычно наблюдается дымка, при ухудшении видимости до 1 км и менее - туман. В сухую погоду видимость может ухудшаться дымом, пылью или мглою.
Явления - указаны атмосферные явления, наблюдавшиеся в срок или в последний час перед сроком; фигурными скобками обозначены явления, наблюдавшиеся между сроками (за 1-3 часа до срока); квадратными скобками обозначены град или гололедные отложения с указанием их диаметра в мм.
Облачность - указаны через наклонную черту общая и нижняя облачность в баллах и высота нижней границы облаков в метрах; квадратными скобками обозначены формы облаков: Ci - перистые, Cs - перисто-слоистые, Cc - перисто-кучевые, Ac - высококучевые, As - высокослоистые, Sc - слоисто-кучевые, Ns - слоисто-дождевые, Cu - кучевые, Cb - кучево-дождевые. Подробнее классификацию облаков см. в Атласе облаков (PDF).
T - Температура воздуха - температура, измеренная на высоте 2 м над землей.
Td - Температура точки росы - температура, при понижении до которой содержащийся в воздухе водяной пар достигнет насыщения.
f - Относительная влажность воздуха - влажноcть воздуха, измеренная на высоте 2 м над землей.
Te - Эффективная температура - температура, которую ощущает одетый по сезону человек в тени. Характеристика душности погоды. При расчете учитывается влияние влажности воздуха и скорости ветра на теплоощущения человека.
Tes - Эффективная температура на солнце - температура, которую ощущает человек, с поправкой на солнечный нагрев. Характеристика знойности погоды. Зависит от высоты солнца над горизонтом, облачности и скорости ветра. Ночью, в пасмурную погоду, а также при ветре 12 м/с и более поправка равна нулю.
P - Атмосферное давление - приведенное к уровню моря атмосферное давление.
Po - Атмосферное давление - измеренное на уровне метеостанции атмосферное давление.
Tmin - Минимальная температура - минимум температуры воздуха на высоте 2 м над землей.
Tmax - Максимальная температура - максимум температуры воздуха на высоте 2 м над землей.
R - Количество осадков - Количество выпавших осадков за период времени, мм. При наведении курсора мыши на число - период времени, за который выпало указанное количество осадков.
R24 - Количество осадков - Количество выпавших осадков за 24 часа, мм.
S - Снежный покров - Высота снежного покрова, см. При наведении курсора мыши на число - состояние снежного покрова и степень покрытия местности в баллах.